Date_UTC,IAGA,MLT,MLAT,IGRF_DECL,SZA,N,E,Z
2015-08-15 08:00:00,PBK,18.47,65.94,-1.58,83.24,9.9,1.4,1.4
2015-08-15 08:01:00,PBK,18.48,65.94,-1.58,83.32,10.9,0.4,0.4
2015-08-15 08:02:00,PBK,18.50,65.94,-1.58,83.40,11.9,2.4,1.5
2015-08-15 08:03:00,PBK,18.52,65.94,-1.58,83.48,12.8,4.4,3.5
2015-08-15 08:04:00,PBK,18.53,65.94,-1.58,83.56,11.8,4.4,3.5
2015-08-15 08:05:00,PBK,18.55,65.94,-1.58,83.64,8.9,1.3,2.5
2015-08-15 08:06:00,PBK,18.57,65.94,-1.58,83.71,8.0,0.2,1.5
2015-08-15 08:07:00,PBK,18.58,65.94,-1.58,83.79,11.9,2.3,1.5
2015-08-15 08:08:00,PBK,18.60,65.94,-1.58,83.87,12.9,4.3,3.5
2015-08-15 08:09:00,PBK,18.62,65.94,-1.58,83.95,11.9,3.2,3.5
2015-08-15 08:10:00,PBK,18.63,65.94,-1.58,84.02,11.9,3.2,3.5
2015-08-15 08:11:00,PBK,18.65,65.94,-1.58,84.10,11.9,3.2,2.5
2015-08-15 08:12:00,PBK,18.67,65.94,-1.58,84.18,11.9,2.2,1.6
2015-08-15 08:13:00,PBK,18.68,65.94,-1.58,84.25,11.9,2.2,1.6
2015-08-15 08:14:00,PBK,18.70,65.94,-1.58,84.33,12.9,2.2,1.6
2015-08-15 08:15:00,PBK,18.72,65.94,-1.58,84.41,10.9,2.1,1.6
2015-08-15 08:16:00,PBK,18.73,65.94,-1.58,84.48,9.0,-1.0,-0.4
2015-08-15 08:17:00,PBK,18.75,65.94,-1.58,84.56,14.0,0.1,-1.4
2015-08-15 08:18:00,PBK,18.77,65.94,-1.58,84.63,16.9,4.2,0.6
2015-08-15 08:19:00,PBK,18.78,65.94,-1.58,84.71,13.9,3.1,1.6
2015-08-15 08:20:00,PBK,18.80,65.94,-1.58,84.78,9.0,-0.1,-0.4
2015-08-15 08:21:00,PBK,18.82,65.94,-1.58,84.86,7.0,-1.2,-1.4
2015-08-15 08:22:00,PBK,18.83,65.94,-1.58,84.94,7.0,-1.2,-2.4
2015-08-15 08:23:00,PBK,18.85,65.94,-1.58,85.01,8.0,-2.2,-3.4
2015-08-15 08:24:00,PBK,18.87,65.94,-1.58,85.09,10.0,-1.1,-2.3
2015-08-15 08:25:00,PBK,18.88,65.94,-1.58,85.16,10.9,0.9,-1.3
2015-08-15 08:26:00,PBK,18.90,65.94,-1.58,85.23,11.9,1.9,-0.3
2015-08-15 08:27:00,PBK,18.92,65.94,-1.58,85.31,11.9,1.8,-0.3
2015-08-15 08:28:00,PBK,18.93,65.94,-1.58,85.38,10.9,1.8,-0.3
2015-08-15 08:29:00,PBK,18.95,65.94,-1.58,85.46,-0.3,7.5,3.7
2015-08-15 08:30:00,PBK,18.97,65.94,-1.58,85.53,-29.7,-16.3,-5.3
2015-08-15 08:31:00,PBK,18.98,65.94,-1.58,85.61,17.9,-37.1,-36.3
2015-08-15 08:32:00,PBK,19.00,65.94,-1.58,85.68,125.1,34.6,-11.3
2015-08-15 08:33:00,PBK,19.02,65.94,-1.58,85.75,132.5,56.8,23.7
2015-08-15 08:34:00,PBK,19.03,65.94,-1.58,85.83,79.3,24.4,10.7
2015-08-15 08:35:00,PBK,19.05,65.94,-1.58,85.90,97.1,32.8,-2.3
2015-08-15 08:36:00,PBK,19.07,65.94,-1.58,85.97,112.7,50.2,13.8
2015-08-15 08:37:00,PBK,19.08,65.94,-1.58,86.04,97.2,26.8,7.8
2015-08-15 08:38:00,PBK,19.10,65.94,-1.58,86.12,102.6,11.9,-9.2
2015-08-15 08:39:00,PBK,19.12,65.94,-1.58,86.19,116.0,37.2,2.8
2015-08-15 08:40:00,PBK,19.14,65.94,-1.58,86.26,112.8,44.2,13.8
2015-08-15 08:41:00,PBK,19.15,65.94,-1.58,86.33,107.6,13.0,-3.2
2015-08-15 08:42:00,PBK,19.17,65.94,-1.58,86.40,111.5,14.1,-9.2
2015-08-15 08:43:00,PBK,19.19,65.94,-1.58,86.48,112.9,39.1,9.8
2015-08-15 08:44:00,PBK,19.20,65.94,-1.58,86.55,105.0,33.9,12.8
2015-08-15 08:45:00,PBK,19.22,65.94,-1.58,86.62,107.3,23.9,6.8
2015-08-15 08:46:00,PBK,19.24,65.94,-1.58,86.69,113.1,31.1,9.8
2015-08-15 08:47:00,PBK,19.25,65.94,-1.58,86.76,113.8,43.1,19.9
2015-08-15 08:48:00,PBK,19.27,65.94,-1.58,86.83,112.9,36.0,18.9
2015-08-15 08:49:00,PBK,19.29,65.94,-1.58,86.90,109.9,34.9,19.9
2015-08-15 08:50:00,PBK,19.30,65.94,-1.58,86.97,103.9,36.8,23.9
2015-08-15 08:51:00,PBK,19.32,65.94,-1.58,87.04,101.9,33.7,23.9
2015-08-15 08:52:00,PBK,19.34,65.94,-1.58,87.11,102.0,29.7,23.9
2015-08-15 08:53:00,PBK,19.35,65.94,-1.58,87.18,104.1,26.7,21.9
2015-08-15 08:54:00,PBK,19.37,65.94,-1.58,87.25,107.8,36.8,29.9
2015-08-15 08:55:00,PBK,19.39,65.94,-1.58,87.32,103.8,35.7,31.9
2015-08-15 08:56:00,PBK,19.40,65.94,-1.58,87.39,102.8,36.7,34.9
2015-08-15 08:57:00,PBK,19.42,65.94,-1.58,87.46,109.9,31.8,31.9
2015-08-15 08:58:00,PBK,19.44,65.94,-1.58,87.53,113.0,26.9,28.0
2015-08-15 08:59:00,PBK,19.45,65.94,-1.58,87.59,115.0,25.9,27.0
2015-08-15 09:00:00,PBK,19.47,65.94,-1.58,87.66,113.1,22.9,28.0
2015-08-15 09:01:00,PBK,19.49,65.94,-1.58,87.73,108.1,23.7,30.0
2015-08-15 09:02:00,PBK,19.50,65.94,-1.58,87.80,105.0,25.7,33.0
2015-08-15 09:03:00,PBK,19.52,65.94,-1.58,87.87,100.9,28.5,39.0
2015-08-15 09:04:00,PBK,19.54,65.94,-1.58,87.93,102.8,34.6,49.0
2015-08-15 09:05:00,PBK,19.55,65.94,-1.58,88.00,101.7,34.6,51.0
2015-08-15 09:06:00,PBK,19.57,65.94,-1.58,88.07,103.8,33.6,54.0
2015-08-15 09:07:00,PBK,19.59,65.94,-1.58,88.13,105.9,28.6,51.0
2015-08-15 09:08:00,PBK,19.60,65.94,-1.58,88.20,109.5,43.7,65.0
2015-08-15 09:09:00,PBK,19.62,65.94,-1.58,88.27,121.5,42.0,69.0
2015-08-15 09:10:00,PBK,19.64,65.94,-1.58,88.33,113.6,38.8,68.0
2015-08-15 09:11:00,PBK,19.65,65.94,-1.58,88.40,121.5,39.0,66.0
2015-08-15 09:12:00,PBK,19.67,65.94,-1.58,88.46,124.3,46.1,72.1
2015-08-15 09:13:00,PBK,19.69,65.94,-1.58,88.53,134.1,53.3,78.1
2015-08-15 09:14:00,PBK,19.71,65.94,-1.58,88.59,157.5,77.9,93.1
2015-08-15 09:15:00,PBK,19.72,65.94,-1.58,88.66,191.3,87.8,99.1
2015-08-15 09:16:00,PBK,19.74,65.94,-1.58,88.72,215.1,94.4,106.1
2015-08-15 09:17:00,PBK,19.76,65.94,-1.58,88.79,230.8,103.8,115.1
2015-08-15 09:18:00,PBK,19.77,65.94,-1.58,88.85,238.7,109.9,113.1
2015-08-15 09:19:00,PBK,19.79,65.94,-1.58,88.92,228.1,91.7,90.1
2015-08-15 09:20:00,PBK,19.81,65.94,-1.58,88.98,224.8,101.6,87.1
2015-08-15 09:21:00,PBK,19.82,65.94,-1.58,89.04,238.1,90.9,74.1
2015-08-15 09:22:00,PBK,19.84,65.94,-1.58,89.11,216.9,56.4,41.1
2015-08-15 09:23:00,PBK,19.86,65.94,-1.58,89.17,180.5,34.4,3.1
2015-08-15 09:24:00,PBK,19.87,65.94,-1.58,89.23,182.5,-6.5,-51.9
2015-08-15 09:25:00,PBK,19.89,65.94,-1.58,89.30,177.0,-28.7,-81.9
2015-08-15 09:26:00,PBK,19.91,65.94,-1.58,89.36,171.6,-11.8,-80.9
2015-08-15 09:27:00,PBK,19.92,65.94,-1.58,89.42,162.5,-10.0,-89.8
2015-08-15 09:28:00,PBK,19.94,65.94,-1.58,89.48,161.7,-19.1,-109.8
2015-08-15 09:29:00,PBK,19.96,65.94,-1.58,89.54,151.6,-15.3,-122.8
2015-08-15 09:30:00,PBK,19.97,65.94,-1.58,89.61,143.7,-18.5,-134.8
2015-08-15 09:31:00,PBK,19.99,65.94,-1.58,89.67,133.7,-19.8,-133.8
2015-08-15 09:32:00,PBK,20.01,65.94,-1.58,89.73,117.4,-48.2,-150.8
2015-08-15 09:33:00,PBK,20.02,65.94,-1.58,89.79,105.3,-45.5,-137.8
2015-08-15 09:34:00,PBK,20.04,65.94,-1.58,89.85,106.9,-28.4,-113.8
2015-08-15 09:35:00,PBK,20.06,65.94,-1.58,89.91,108.9,-28.4,-104.8
2015-08-15 09:36:00,PBK,20.07,65.94,-1.58,89.97,94.3,-48.7,-118.8
2015-08-15 09:37:00,PBK,20.09,65.94,-1.58,90.03,82.1,-78.1,-142.8
2015-08-15 09:38:00,PBK,20.11,65.94,-1.58,90.09,66.5,-96.4,-151.8
2015-08-15 09:39:00,PBK,20.12,65.94,-1.58,90.15,53.3,-86.8,-138.8
2015-08-15 09:40:00,PBK,20.14,65.94,-1.58,90.21,47.1,-79.9,-128.8
2015-08-15 09:41:00,PBK,20.16,65.94,-1.58,90.27,46.1,-80.9,-121.8
2015-08-15 09:42:00,PBK,20.17,65.94,-1.58,90.32,47.7,-64.9,-103.8
2015-08-15 09:43:00,PBK,20.19,65.94,-1.58,90.38,58.2,-47.6,-84.8
2015-08-15 09:44:00,PBK,20.21,65.94,-1.58,90.44,72.8,-33.2,-67.8
2015-08-15 09:45:00,PBK,20.22,65.94,-1.58,90.50,80.4,-16.0,-46.8
2015-08-15 09:46:00,PBK,20.24,65.94,-1.58,90.55,82.1,-4.0,-30.8
2015-08-15 09:47:00,PBK,20.26,65.94,-1.58,90.61,60.3,-11.5,-31.7
2015-08-15 09:48:00,PBK,20.27,65.94,-1.58,90.67,44.5,-23.9,-43.7
2015-08-15 09:49:00,PBK,20.29,65.94,-1.58,90.73,38.9,-38.0,-54.7
2015-08-15 09:50:00,PBK,20.31,65.94,-1.58,90.78,47.8,-34.8,-47.7
2015-08-15 09:51:00,PBK,20.33,65.94,-1.58,90.84,52.9,-37.7,-43.7
2015-08-15 09:52:00,PBK,20.34,65.94,-1.58,90.89,48.8,-34.8,-39.7
2015-08-15 09:53:00,PBK,20.36,65.94,-1.58,90.95,37.9,-38.0,-41.7
2015-08-15 09:54:00,PBK,20.38,65.94,-1.58,91.00,45.8,-36.8,-38.7
2015-08-15 09:55:00,PBK,20.39,65.94,-1.58,91.06,59.5,-23.4,-27.7
2015-08-15 09:56:00,PBK,20.41,65.94,-1.58,91.11,77.2,-11.0,-15.7
2015-08-15 09:57:00,PBK,20.43,65.94,-1.58,91.17,77.2,-14.0,-12.7
2015-08-15 09:58:00,PBK,20.44,65.94,-1.58,91.22,70.4,-21.1,-15.7
2015-08-15 09:59:00,PBK,20.46,65.94,-1.58,91.28,72.6,-31.0,-23.7
2015-08-15 10:00:00,PBK,20.48,65.94,-1.58,91.33,75.7,-34.9,-33.7
2015-08-15 10:01:00,PBK,20.49,65.94,-1.58,91.38,75.4,-20.9,-28.7
2015-08-15 10:02:00,PBK,20.51,65.94,-1.58,91.44,72.2,-15.0,-19.7
2015-08-15 10:03:00,PBK,20.53,65.94,-1.58,91.49,72.1,-12.0,-15.7
2015-08-15 10:04:00,PBK,20.54,65.94,-1.58,91.54,76.3,-18.9,-19.7
2015-08-15 10:05:00,PBK,20.56,65.94,-1.58,91.60,104.0,-6.1,-16.7
2015-08-15 10:06:00,PBK,20.58,65.94,-1.58,91.65,116.8,1.2,-21.7
2015-08-15 10:07:00,PBK,20.59,65.94,-1.58,91.70,111.8,0.1,-22.7
2015-08-15 10:08:00,PBK,20.61,65.94,-1.58,91.75,108.9,-2.9,-17.6
2015-08-15 10:09:00,PBK,20.63,65.94,-1.58,91.80,97.1,-11.2,-18.6
2015-08-15 10:10:00,PBK,20.64,65.94,-1.58,91.85,80.3,-20.6,-25.6
2015-08-15 10:11:00,PBK,20.66,65.94,-1.58,91.90,72.7,-37.8,-43.6
2015-08-15 10:12:00,PBK,20.68,65.94,-1.58,91.95,50.3,-60.3,-62.6
2015-08-15 10:13:00,PBK,20.69,65.94,-1.58,92.00,39.3,-59.6,-56.6
2015-08-15 10:14:00,PBK,20.71,65.94,-1.58,92.05,44.0,-50.4,-31.6
2015-08-15 10:15:00,PBK,20.73,65.94,-1.58,92.10,39.0,-50.5,-15.6
2015-08-15 10:16:00,PBK,20.74,65.94,-1.58,92.15,20.2,-59.0,-8.6
2015-08-15 10:17:00,PBK,20.76,65.94,-1.58,92.20,2.4,-64.4,-6.6
2015-08-15 10:18:00,PBK,20.78,65.94,-1.58,92.25,-5.6,-64.6,-5.6
2015-08-15 10:19:00,PBK,20.79,65.94,-1.58,92.30,-8.6,-65.6,-5.6
2015-08-15 10:20:00,PBK,20.81,65.94,-1.58,92.35,-6.4,-74.5,-7.6
2015-08-15 10:21:00,PBK,20.83,65.94,-1.58,92.39,14.9,-86.0,-16.6
2015-08-15 10:22:00,PBK,20.84,65.94,-1.58,92.44,28.0,-88.6,-21.6
2015-08-15 10:23:00,PBK,20.86,65.94,-1.58,92.49,33.9,-83.4,-19.6
2015-08-15 10:24:00,PBK,20.88,65.94,-1.58,92.53,34.9,-82.4,-20.6
2015-08-15 10:25:00,PBK,20.89,65.94,-1.58,92.58,39.6,-73.2,-13.5
2015-08-15 10:26:00,PBK,20.91,65.94,-1.58,92.63,61.2,-57.6,-3.5
2015-08-15 10:27:00,PBK,20.93,65.94,-1.58,92.67,72.3,-57.3,-8.5
2015-08-15 10:28:00,PBK,20.94,65.94,-1.58,92.72,70.4,-63.4,-16.5
2015-08-15 10:29:00,PBK,20.96,65.94,-1.58,92.76,80.6,-70.1,-25.5
2015-08-15 10:30:00,PBK,20.97,65.94,-1.58,92.81,98.9,-80.6,-39.5
2015-08-15 10:31:00,PBK,20.99,65.94,-1.58,92.85,121.6,-70.0,-42.5
2015-08-15 10:32:00,PBK,21.01,65.94,-1.58,92.90,137.0,-45.5,-33.5
2015-08-15 10:33:00,PBK,21.02,65.94,-1.58,92.94,138.1,-48.5,-39.5
2015-08-15 10:34:00,PBK,21.04,65.94,-1.58,92.99,124.4,-59.8,-48.4
2015-08-15 10:35:00,PBK,21.06,65.94,-1.58,93.03,110.4,-60.1,-49.4
2015-08-15 10:36:00,PBK,21.07,65.94,-1.58,93.07,107.4,-59.1,-50.4
2015-08-15 10:37:00,PBK,21.09,65.94,-1.58,93.12,104.3,-54.2,-47.4
2015-08-15 10:38:00,PBK,21.11,65.94,-1.58,93.16,100.4,-57.2,-52.4
2015-08-15 10:39:00,PBK,21.12,65.94,-1.58,93.20,85.0,-80.6,-67.4
2015-08-15 10:40:00,PBK,21.14,65.94,-1.58,93.24,58.6,-102.2,-77.4
2015-08-15 10:41:00,PBK,21.16,65.94,-1.58,93.29,50.6,-105.4,-76.4
2015-08-15 10:42:00,PBK,21.17,65.94,-1.58,93.33,33.1,-120.8,-85.3
2015-08-15 10:43:00,PBK,21.19,65.94,-1.58,93.37,6.4,-132.4,-87.3
2015-08-15 10:44:00,PBK,21.21,65.94,-1.58,93.41,-8.9,-120.7,-65.3
2015-08-15 10:45:00,PBK,21.22,65.94,-1.58,93.45,-22.9,-120.1,-47.3
2015-08-15 10:46:00,PBK,21.24,65.94,-1.58,93.49,-36.9,-119.4,-29.3
2015-08-15 10:47:00,PBK,21.26,65.94,-1.58,93.53,-38.8,-121.4,-21.3
2015-08-15 10:48:00,PBK,21.27,65.94,-1.58,93.57,-36.6,-129.3,-20.2
2015-08-15 10:49:00,PBK,21.29,65.94,-1.58,93.61,-28.5,-135.0,-25.7
2015-08-15 10:50:00,PBK,21.30,65.94,-1.58,93.65,-20.3,-140.8,-31.2
2015-08-15 10:51:00,PBK,21.32,65.94,-1.58,93.69,-20.4,-136.7,-25.2
2015-08-15 10:52:00,PBK,21.34,65.94,-1.58,93.72,-6.3,-139.3,-19.2
2015-08-15 10:53:00,PBK,21.35,65.94,-1.58,93.76,-13.0,-149.5,-28.1
2015-08-15 10:54:00,PBK,21.37,65.94,-1.58,93.80,-29.2,-138.8,-16.1
2015-08-15 10:55:00,PBK,21.39,65.94,-1.58,93.84,-28.1,-102.7,10.9
2015-08-15 10:56:00,PBK,21.40,65.94,-1.58,93.87,-23.5,-86.6,27.9
2015-08-15 10:57:00,PBK,21.42,65.94,-1.58,93.91,-34.3,-91.8,37.9
2015-08-15 10:58:00,PBK,21.44,65.94,-1.58,93.95,-42.1,-98.9,43.0
2015-08-15 10:59:00,PBK,21.45,65.94,-1.58,93.98,-36.5,-80.8,70.0
2015-08-15 11:00:00,PBK,21.47,65.94,-1.58,94.02,-7.6,-77.0,80.0
2015-08-15 11:01:00,PBK,21.48,65.94,-1.58,94.05,32.5,-78.9,83.0
2015-08-15 11:02:00,PBK,21.50,65.94,-1.58,94.09,47.7,-45.5,102.1
2015-08-15 11:03:00,PBK,21.52,65.94,-1.58,94.12,39.1,-60.7,89.1
2015-08-15 11:04:00,PBK,21.53,65.94,-1.58,94.16,53.9,-47.2,93.1
2015-08-15 11:05:00,PBK,21.55,65.94,-1.58,94.19,33.3,-23.7,102.2
2015-08-15 11:06:00,PBK,21.56,65.94,-1.58,94.22,26.5,-69.8,78.2
2015-08-15 11:07:00,PBK,21.58,65.94,-1.58,94.26,52.6,-73.1,75.2
2015-08-15 11:08:00,PBK,21.60,65.94,-1.58,94.29,61.8,-78.9,58.2
2015-08-15 11:09:00,PBK,21.61,65.94,-1.58,94.32,58.7,-72.9,56.3
2015-08-15 11:10:00,PBK,21.63,65.94,-1.58,94.36,42.6,-67.2,61.3
2015-08-15 11:11:00,PBK,21.65,65.94,-1.58,94.39,13.3,-93.9,48.3
2015-08-15 11:12:00,PBK,21.66,65.94,-1.58,94.42,15.2,-86.8,59.4
2015-08-15 11:13:00,PBK,21.68,65.94,-1.58,94.45,16.9,-73.7,75.4
2015-08-15 11:14:00,PBK,21.69,65.94,-1.58,94.48,12.5,-57.8,92.4
2015-08-15 11:15:00,PBK,21.71,65.94,-1.58,94.51,19.8,-66.6,101.5
2015-08-15 11:16:00,PBK,21.73,65.94,-1.58,94.54,36.9,-28.1,136.5
2015-08-15 11:17:00,PBK,21.74,65.94,-1.58,94.57,11.7,-16.7,154.5
2015-08-15 11:18:00,PBK,21.76,65.94,-1.58,94.60,-17.3,-17.3,159.6
2015-08-15 11:19:00,PBK,21.77,65.94,-1.58,94.63,-27.2,-18.5,162.6
2015-08-15 11:20:00,PBK,21.79,65.94,-1.58,94.66,-49.1,-59.1,152.6
2015-08-15 11:21:00,PBK,21.81,65.94,-1.58,94.69,-27.0,-102.5,138.7
2015-08-15 11:22:00,PBK,21.82,65.94,-1.58,94.72,-46.7,-91.4,154.2
2015-08-15 11:23:00,PBK,21.84,65.94,-1.58,94.75,-66.4,-80.4,169.8
2015-08-15 11:24:00,PBK,21.85,65.94,-1.58,94.77,-94.5,-36.0,228.8
2015-08-15 11:25:00,PBK,21.87,65.94,-1.58,94.80,-109.3,-42.3,259.8
2015-08-15 11:26:00,PBK,21.89,65.94,-1.58,94.83,-118.9,-17.5,312.9
2015-08-15 11:27:00,PBK,21.90,65.94,-1.58,94.86,-92.1,-45.8,300.9
2015-08-15 11:28:00,PBK,21.92,65.94,-1.58,94.88,-90.4,-107.8,235.0
2015-08-15 11:29:00,PBK,21.93,65.94,-1.58,94.91,-123.3,-109.5,230.0
2015-08-15 11:30:00,PBK,21.95,65.94,-1.58,94.93,-158.0,-79.4,251.0
2015-08-15 11:31:00,PBK,21.97,65.94,-1.58,94.96,-153.1,-33.2,285.1
2015-08-15 11:32:00,PBK,21.98,65.94,-1.58,94.98,-126.0,43.6,358.1
2015-08-15 11:33:00,PBK,22.00,65.94,-1.58,95.01,-75.3,59.9,380.2
2015-08-15 11:34:00,PBK,22.01,65.94,-1.58,95.03,-90.1,51.5,379.2
2015-08-15 11:35:00,PBK,22.03,65.94,-1.58,95.06,-114.9,6.9,354.3
2015-08-15 11:36:00,PBK,22.04,65.94,-1.58,95.08,-127.7,-38.3,324.3
2015-08-15 11:37:00,PBK,22.06,65.94,-1.58,95.10,-141.5,-80.7,299.3
2015-08-15 11:38:00,PBK,22.08,65.94,-1.58,95.13,-163.1,-134.2,266.4
2015-08-15 11:39:00,PBK,22.09,65.94,-1.58,95.15,-196.9,-220.0,214.4
2015-08-15 11:40:00,PBK,22.11,65.94,-1.58,95.17,-233.1,-287.9,160.5
2015-08-15 11:41:00,PBK,22.12,65.94,-1.58,95.19,-242.7,-340.2,101.5
2015-08-15 11:42:00,PBK,22.14,65.94,-1.58,95.21,-272.1,-319.9,94.6
2015-08-15 11:43:00,PBK,22.15,65.94,-1.58,95.24,-272.1,-318.8,96.6
2015-08-15 11:44:00,PBK,22.17,65.94,-1.58,95.26,-294.3,-306.3,97.7
2015-08-15 11:45:00,PBK,22.19,65.94,-1.58,95.28,-292.0,-355.3,69.7
2015-08-15 11:46:00,PBK,22.20,65.94,-1.58,95.30,-298.9,-397.4,9.8
2015-08-15 11:47:00,PBK,22.22,65.94,-1.58,95.32,-368.4,-334.1,24.8
2015-08-15 11:48:00,PBK,22.23,65.94,-1.58,95.34,-387.1,-265.5,116.9
2015-08-15 11:49:00,PBK,22.25,65.94,-1.58,95.35,-376.7,-277.2,145.9
2015-08-15 11:50:00,PBK,22.26,65.94,-1.58,95.37,-372.6,-277.1,155.0
2015-08-15 11:51:00,PBK,22.28,65.94,-1.58,95.39,-392.9,-261.6,180.0
2015-08-15 11:52:00,PBK,22.30,65.94,-1.58,95.41,-420.0,-215.2,240.1
2015-08-15 11:53:00,PBK,22.31,65.94,-1.58,95.43,-382.5,-190.2,268.1
2015-08-15 11:54:00,PBK,22.33,65.94,-1.58,95.44,-384.7,-181.2,237.2
2015-08-15 11:55:00,PBK,22.34,65.94,-1.58,95.46,-376.7,-176.0,227.2
2015-08-15 11:56:00,PBK,22.36,65.94,-1.58,95.48,-386.9,-165.2,218.3
2015-08-15 11:57:00,PBK,22.37,65.94,-1.58,95.49,-404.6,-173.6,143.3
2015-08-15 11:58:00,PBK,22.39,65.94,-1.58,95.51,-469.5,-96.2,210.4
2015-08-15 11:59:00,PBK,22.40,65.94,-1.58,95.53,-497.7,-44.9,326.4
2015-08-15 12:00:00,PBK,22.42,65.94,-1.58,95.54,-425.4,-50.1,369.5
2015-08-15 12:01:00,PBK,22.43,65.94,-1.58,95.56,-313.7,-112.2,325.5
2015-08-15 12:02:00,PBK,22.45,65.94,-1.58,95.57,-234.7,-150.2,244.6
2015-08-15 12:03:00,PBK,22.46,65.94,-1.58,95.58,-205.8,-181.5,181.6
2015-08-15 12:04:00,PBK,22.48,65.94,-1.58,95.60,-166.2,-200.5,190.7
2015-08-15 12:05:00,PBK,22.50,65.94,-1.58,95.61,-145.3,-193.9,217.8
2015-08-15 12:06:00,PBK,22.51,65.94,-1.58,95.62,-165.3,-148.4,254.8
2015-08-15 12:07:00,PBK,22.53,65.94,-1.58,95.64,-198.2,-110.2,288.9
2015-08-15 12:08:00,PBK,22.54,65.94,-1.58,95.65,-195.1,-110.1,302.9
2015-08-15 12:09:00,PBK,22.56,65.94,-1.58,95.66,-177.1,-106.6,308.0
2015-08-15 12:10:00,PBK,22.57,65.94,-1.58,95.67,-168.3,-91.4,308.0
2015-08-15 12:11:00,PBK,22.59,65.94,-1.58,95.68,-186.3,-88.8,308.1
2015-08-15 12:12:00,PBK,22.60,65.94,-1.58,95.69,-174.9,-99.5,296.1
2015-08-15 12:13:00,PBK,22.62,65.94,-1.58,95.70,-170.5,-113.4,282.2
2015-08-15 12:14:00,PBK,22.63,65.94,-1.58,95.72,-182.0,-126.7,272.2
2015-08-15 12:15:00,PBK,22.65,65.94,-1.58,95.72,-196.6,-142.0,264.3
2015-08-15 12:16:00,PBK,22.66,65.94,-1.58,95.73,-179.8,-166.6,259.4
2015-08-15 12:17:00,PBK,22.68,65.94,-1.58,95.74,-141.2,-188.6,241.4
2015-08-15 12:18:00,PBK,22.69,65.94,-1.58,95.75,-124.8,-197.2,223.5
2015-08-15 12:19:00,PBK,22.71,65.94,-1.58,95.76,-130.8,-192.3,212.5
2015-08-15 12:20:00,PBK,22.72,65.94,-1.58,95.77,-129.5,-202.3,183.6
2015-08-15 12:21:00,PBK,22.74,65.94,-1.58,95.78,-144.4,-202.6,153.6
2015-08-15 12:22:00,PBK,22.75,65.94,-1.58,95.78,-149.0,-213.7,126.7
2015-08-15 12:23:00,PBK,22.77,65.94,-1.58,95.79,-177.5,-229.5,115.7
2015-08-15 12:24:00,PBK,22.78,65.94,-1.58,95.80,-195.2,-276.9,88.8
2015-08-15 12:25:00,PBK,22.80,65.94,-1.58,95.80,-201.7,-293.1,73.9
2015-08-15 12:26:00,PBK,22.81,65.94,-1.58,95.81,-199.9,-280.0,82.9
2015-08-15 12:27:00,PBK,22.83,65.94,-1.58,95.81,-212.1,-269.3,105.0
2015-08-15 12:28:00,PBK,22.84,65.94,-1.58,95.82,-195.2,-260.9,134.0
2015-08-15 12:29:00,PBK,22.86,65.94,-1.58,95.82,-156.2,-254.9,144.1
2015-08-15 12:30:00,PBK,22.87,65.94,-1.58,95.83,-123.5,-239.0,145.1
2015-08-15 12:31:00,PBK,22.89,65.94,-1.58,95.83,-110.3,-200.7,169.2
2015-08-15 12:32:00,PBK,22.90,65.94,-1.58,95.84,-111.3,-157.7,202.2
2015-08-15 12:33:00,PBK,22.92,65.94,-1.58,95.84,-125.8,-133.0,228.3
2015-08-15 12:34:00,PBK,22.93,65.94,-1.58,95.84,-133.8,-130.2,241.3
2015-08-15 12:35:00,PBK,22.95,65.94,-1.58,95.84,-132.9,-121.2,255.4
2015-08-15 12:36:00,PBK,22.96,65.94,-1.58,95.85,-135.2,-103.3,272.5
2015-08-15 12:37:00,PBK,22.98,65.94,-1.58,95.85,-147.2,-97.6,276.5
2015-08-15 12:38:00,PBK,22.99,65.94,-1.58,95.85,-151.0,-103.7,272.6
2015-08-15 12:39:00,PBK,23.01,65.94,-1.58,95.85,-157.9,-101.8,275.6
2015-08-15 12:40:00,PBK,23.02,65.94,-1.58,95.85,-165.8,-100.0,282.7
2015-08-15 12:41:00,PBK,23.04,65.94,-1.58,95.85,-149.9,-93.6,288.7
2015-08-15 12:42:00,PBK,23.05,65.94,-1.58,95.85,-132.0,-86.2,292.8
2015-08-15 12:43:00,PBK,23.07,65.94,-1.58,95.85,-119.9,-82.9,288.8
2015-08-15 12:44:00,PBK,23.08,65.94,-1.58,95.85,-98.8,-82.3,277.9
2015-08-15 12:45:00,PBK,23.10,65.94,-1.58,95.85,-68.7,-82.6,261.9
2015-08-15 12:46:00,PBK,23.11,65.94,-1.58,95.85,-43.4,-88.0,240.0
2015-08-15 12:47:00,PBK,23.13,65.94,-1.58,95.85,-24.5,-78.5,231.0
2015-08-15 12:48:00,PBK,23.14,65.94,-1.58,95.84,-14.5,-73.2,228.1
2015-08-15 12:49:00,PBK,23.16,65.94,-1.58,95.84,-17.0,-69.3,225.7
2015-08-15 12:50:00,PBK,23.17,65.94,-1.58,95.84,-19.5,-65.4,223.2
2015-08-15 12:51:00,PBK,23.18,65.94,-1.58,95.84,-21.3,-69.4,218.3
2015-08-15 12:52:00,PBK,23.20,65.94,-1.58,95.83,-27.2,-67.6,218.3
2015-08-15 12:53:00,PBK,23.21,65.94,-1.58,95.83,-37.1,-65.8,222.4
2015-08-15 12:54:00,PBK,23.23,65.94,-1.58,95.82,-35.7,-79.8,216.4
2015-08-15 12:55:00,PBK,23.24,65.94,-1.58,95.82,-39.7,-72.9,212.5
2015-08-15 12:56:00,PBK,23.26,65.94,-1.58,95.81,-60.5,-37.4,241.5
2015-08-15 12:57:00,PBK,23.27,65.94,-1.58,95.81,-48.6,-28.1,269.6
2015-08-15 12:58:00,PBK,23.29,65.94,-1.58,95.80,-22.2,-41.5,275.6
2015-08-15 12:59:00,PBK,23.30,65.94,-1.58,95.80,0.8,-34.9,279.7
2015-08-15 13:00:00,PBK,23.32,65.94,-1.58,95.79,2.6,-21.9,282.8
